KOREASAT 7

Last updated on Fri Feb 06 2026 00:02:52 GMT+0000 (Coordinated Universal Time)

1 42691U 17023A 26036.65031881 -.00000363 00000+0 00000+0 0 9995 2 42691 0.0241 26.3742 0001266 311.2114 148.1888 1.00270175 32054
UTC large
Height (km)
Speed (km/s)
/
Latitude / Longitude
Inclination (degrees)
Orbital Period (minutes)
Azimuth
Elevation
Range (km)
Doppler Factor

Next 0 passes for location: London (51.5072 / 0.1276)

Sorry there are no passes over London.